Location: CCZU
(31.6840°N, 119.9550°E)
Time: 12:36:57
(UTC+08:00)

Hubble Space Telescope - Pass Details

Date: 28 September 2022
Orbit: 530 x 534 km, 28.5° (Epoch: 28 November)

Event Time Altitude Azimuth Distance (km) Brightness Sun altitude
Rises 19:38:32 0° 265° (W) 2,652 5.5 -23.9°
Reaches altitude 10° 19:40:49 10° 261° (W) 1,763 4.3 -24.3°
Enters shadow 19:43:56 43° 227° (SW) 743 1.6 -25.0°
